Flint, MI

10:23 PM EDT on June 28, 2017 (GMT -0400)
Bishop International

Weather History for KFNT - September, 2012

Change the Weather History Date:

Thursday, September 27, 2012

  Actual Average Record
Temperature  
Mean Temperature 54 °F 56 °F  
Max Temperature 66 °F 68 °F 86 °F (1999)
Min Temperature 41 °F 45 °F 27 °F (1957)
Degree Days  
Heating Degree Days 11 9  
Month to date heating degree days 135 135  
Since 1 July heating degree days 146 179  
Cooling Degree Days 0 1  
Month to date cooling degree days 65 46  
Year to date cooling degree days 853 523  
Growing Degree Days 4 (Base 50)    
Moisture  
Dew Point 43 °F    
Average Humidity 70    
Maximum Humidity 92    
Minimum Humidity 48    
Precipitation  
Precipitation 0.00 in 0.12 in 1.43 in (1936)
Month to date precipitation 2.58 3.41  
Year to date precipitation 24.30 23.97  
Snow  
Snow 0.00 in 0.00 in 0.00 in ()
Month to date snowfall 0.0 0.0  
Since 1 July snowfall 0.0 0.0  
Since 1 September snowfall 0.0 0.0  
Snow Depth 0.00 in    
Sea Level Pressure  
Sea Level Pressure 30.22 in    
Wind  
Wind Speed 6 mph (East)    
Max Wind Speed 14 mph    
Max Gust Speed 17 mph    
Visibility 10 miles    
Events      
T = Trace of Precipitation, MM = Missing Value Source: NWS Daily Summary

Daily Weather History Graph

Daily Weather History Graph

Search for Another Location

Airport or City:

Trip Planner

Search our weather history database for the weather conditions in past years. The results will help you decide how hot, cold, wet, or windy it might be!

Date:

Astronomy

Sep. 27, 2012 Rise Set
Actual Time 7:28 AM EDT 7:22 PM EDT
Civil Twilight 7:00 AM EDT 7:50 PM EDT
Nautical Twilight 6:27 AM EDT 8:23 PM EDT
Astronomical Twilight 5:53 AM EDT 8:57 PM EDT
Moon 5:55 PM EDT (9/27) 4:53 AM EDT (9/27)
Length of Visible Light 12h 50m
Length of Day
11h 54m
Waxing Gibbous, 94% of the Moon is Illuminated
Sep 27
Waxing Gibbous
Sep 29
Full
Oct 8
Last Quarter
Oct 15
New
Oct 21
First Quarter

Hourly Weather History & Observations

Time (EDT) Temp. Windchill Dew Point Humidity Pressure Visibility Wind Dir Wind Speed Gust Speed Precip Events Conditions
12:53 AM 48.9 °F - 42.1 °F 77% 30.19 in 10.0 mi East 3.5 mph - N/A   Mostly Cloudy
1:53 AM 48.0 °F - 42.1 °F 80% 30.20 in 10.0 mi ENE 4.6 mph - N/A   Clear
2:53 AM 46.9 °F - 43.0 °F 86% 30.22 in 10.0 mi SE 3.5 mph - N/A   Clear
3:53 AM 44.1 °F - 41.0 °F 89% 30.22 in 10.0 mi Calm Calm - N/A   Clear
4:53 AM 45.0 °F 41.8 °F 42.1 °F 90% 30.22 in 10.0 mi NE 5.8 mph - N/A   Clear
5:53 AM 43.0 °F 40.3 °F 39.9 °F 89% 30.23 in 10.0 mi SE 4.6 mph - N/A   Clear
6:53 AM 43.0 °F - 39.9 °F 89% 30.24 in 10.0 mi Calm Calm - N/A   Partly Cloudy
7:53 AM 46.0 °F 43.9 °F 42.1 °F 86% 30.25 in 10.0 mi NE 4.6 mph - N/A   Mostly Cloudy
8:53 AM 48.9 °F - 43.0 °F 80% 30.27 in 10.0 mi East 4.6 mph - N/A   Scattered Clouds
9:53 AM 52.0 °F - 44.1 °F 74% 30.27 in 10.0 mi East 5.8 mph - N/A   Mostly Cloudy
10:53 AM 57.9 °F - 44.1 °F 60% 30.27 in 10.0 mi East 11.5 mph - N/A   Clear
11:53 AM 61.0 °F - 44.1 °F 54% 30.26 in 10.0 mi East 10.4 mph - N/A   Mostly Cloudy
12:53 PM 63.0 °F - 45.0 °F 52% 30.25 in 10.0 mi East 10.4 mph - N/A   Scattered Clouds
1:53 PM 62.6 °F - 42.8 °F 48% 30.22 in 10.0 mi Variable 3.5 mph - N/A   Mostly Cloudy
2:53 PM 66.0 °F - 46.0 °F 48% 30.21 in 10.0 mi East 6.9 mph - N/A   Overcast
3:53 PM 64.9 °F - 46.0 °F 50% 30.19 in 10.0 mi ENE 8.1 mph - N/A   Mostly Cloudy
4:53 PM 63.0 °F - 44.1 °F 50% 30.18 in 10.0 mi East 4.6 mph - N/A   Scattered Clouds
5:53 PM 64.0 °F - 45.0 °F 50% 30.19 in 10.0 mi NE 5.8 mph - N/A   Overcast
6:53 PM 62.1 °F - 44.1 °F 52% 30.18 in 10.0 mi NNE 6.9 mph - N/A   Overcast
7:53 PM 57.9 °F - 44.1 °F 60% 30.18 in 10.0 mi East 5.8 mph - N/A   Overcast
8:53 PM 57.0 °F - 44.1 °F 62% 30.20 in 10.0 mi East 6.9 mph - N/A   Overcast
9:53 PM 55.9 °F - 43.0 °F 62% 30.21 in 10.0 mi East 8.1 mph - N/A   Overcast
10:53 PM 53.1 °F - 42.1 °F 66% 30.20 in 10.0 mi East 6.9 mph - N/A   Mostly Cloudy
11:53 PM 53.1 °F - 42.1 °F 66% 30.19 in 10.0 mi East 5.8 mph - N/A   Overcast